Wind_Speed
16 15 12 10 8 6 4 3 3 5 6 5 7 10 11 13 15 16 16 17 17 17 17 17 16 15 15 14 14 13 12 12 11 10 9 8 7 5 4 3 3 3 3 2
17 15 13 12 11 8 6 5 3 4 4 6 7 8 9 10 12 13 14 15 16 16 16 15 15 15 15 14 13 13 12 11 11 10 9 8 7 6 5 5 4 5 4 3
17 16 16 15 13 10 8 6 3 3 4 6 7 7 8 9 11 11 13 13 14 14 14 13 14 14 14 14 13 13 12 11 10 9 9 8 8 7 6 5 5 5 5 4
19 17 17 16 14 12 10 7 5 5 6 8 8 10 8 9 9 10 11 12 12 12 13 12 12 12 13 13 13 13 12 12 11 10 9 9 8 8 7 7 6 6 6 5
20 19 18 17 15 13 13 10 8 7 8 10 10 11 9 8 9 10 10 10 10 11 12 11 10 10 11 12 13 12 12 12 11 10 10 10 9 8 8 8 8 8 7 6
20 20 19 18 16 14 13 12 11 10 10 11 10 12 10 9 8 8 8 9 9 9 10 10 10 10 11 11 11 11 11 11 11 11 10 10 10 9 9 9 9 9 9 8
21 21 20 18 17 15 15 15 14 12 12 12 12 13 12 9 8 9 9 8 7 8 8 8 8 9 10 11 11 11 10 11 11 10 11 10 10 10 10 9 10 10 10 9
22 21 20 18 17 16 15 17 16 15 14 13 13 14 14 11 10 9 8 7 7 7 7 6 7 8 9 10 11 11 11 12 11 11 11 11 11 11 11 11 11 11 10 10
23 21 20 18 17 16 17 17 17 17 16 16 15 14 14 12 12 11 8 7 9 8 7 6 7 8 9 10 10 11 11 11 11 10 10 10 10 11 11 11 12 11 11 11
24 22 20 19 19 18 17 16 17 18 18 19 17 15 14 13 11 10 8 7 8 7 6 7 6 7 9 9 10 11 11 11 10 10 10 10 11 11 11 11 11 12 12 12
25 24 22 21 21 20 20 20 19 19 19 19 18 16 13 11 9 9 8 8 8 7 8 8 7 7 9 10 11 11 11 11 11 11 11 11 12 12 12 11 12 12 13 13
25 25 24 23 23 22 21 21 21 21 20 21 21 18 14 12 11 10 9 9 9 9 8 8 8 8 9 10 11 12 12 12 13 13 14 14 13 13 13 13 13 13 14 14
28 27 26 26 25 25 24 23 23 22 22 22 23 20 16 15 13 12 11 11 12 12 11 8 8 9 9 11 12 13 13 13 14 14 15 15 15 15 16 15 14 14 14 14
30 30 29 28 28 27 26 25 24 23 23 24 24 23 20 19 17 15 14 14 15 15 12 10 9 10 11 12 13 14 14 15 15 15 16 16 16 16 15 15 15 15 15 15
31 30 29 30 30 29 28 27 26 26 25 25 24 24 22 20 19 18 18 17 17 14 13 12 11 12 13 13 14 15 15 16 16 17 17 17 18 17 16 16 16 16 16 16
33 32 30 30 31 31 30 28 28 28 28 26 25 24 23 21 20 20 20 20 19 18 16 16 16 15 14 15 15 16 17 17 18 18 18 18 19 18 17 16 17 18 18 18
34 33 33 32 32 32 32 30 29 28 28 28 27 26 25 23 22 22 23 22 21 20 20 20 19 18 17 17 17 18 18 19 19 19 19 19 19 18 17 17 18 19 19 19
35 35 35 34 33 33 32 30 31 30 30 30 30 28 27 26 24 22 22 22 22 22 21 21 21 21 19 19 19 19 20 21 20 21 21 21 21 20 19 19 19 20 20 20
34 34 35 35 36 35 34 32 33 32 31 30 31 30 30 28 27 25 23 23 24 23 22 22 22 22 22 21 21 21 21 22 22 22 21 21 21 21 20 20 21 20 21 21
35 34 35 35 36 37 35 34 34 34 34 32 31 31 30 29 29 26 25 25 26 26 25 25 25 24 23 22 23 23 23 22 22 21 21 21 21 21 21 21 21 21 22 22
35 35 34 35 36 36 35 35 35 36 35 33 33 33 31 31 28 27 27 27 27 28 27 26 25 24 23 23 24 24 23 23 23 23 23 23 22 22 22 22 22 22 23 24
35 35 34 34 35 35 34 34 35 35 35 34 34 33 32 31 30 30 30 29 28 27 26 26 26 25 24 25 25 24 24 24 24 25 24 24 24 24 24 24 25 25 25 25
35 35 35 35 35 34 33 33 34 35 35 34 33 33 32 31 31 31 31 30 30 29 26 26 27 26 25 25 25 25 25 26 26 26 26 25 26 26 27 26 26 27 26 26
35 35 35 35 35 35 34 34 35 36 36 35 33 33 33 32 32 32 32 31 30 29 27 27 26 26 26 26 26 26 26 27 27 28 27 26 27 27 28 28 28 28 27 26
34 34 34 34 34 34 34 35 36 34 33 33 33 32 32 32 32 33 33 31 30 31 31 29 29 29 29 28 28 28 29 29 29 29 30 28 28 28 29 29 28 28 27 26
34 35 36 35 34 34 33 33 34 34 33 32 33 33 32 33 33 34 34 34 33 33 33 32 30 30 30 30 30 30 30 30 30 30 31 31 29 29 29 28 28 28 28 27
Wind_Direction
193 188 188 190 199 208 220 244 312 328 337 344 354 4 16 22 22 20 22 27 32 34 33 35 38 41 44 45 45 47 49 49 48 49 49 49 47 47 42 26 12 357 346 338
198 194 194 199 206 219 227 245 278 324 353 346 348 359 3 14 13 11 18 26 28 29 32 34 39 42 43 43 43 43 43 43 42 42 40 40 38 36 30 21 9 358 346 326
202 198 201 201 206 219 221 239 250 297 320 323 331 334 340 3 12 11 12 19 22 25 31 35 39 40 41 41 41 41 40 38 36 35 35 31 25 23 19 12 3 352 346 335
207 204 207 209 209 216 227 230 240 285 293 294 315 321 326 347 3 5 8 13 17 23 26 32 34 36 37 36 36 37 37 34 31 31 30 24 19 17 13 9 1 347 337 332
212 210 209 214 213 214 227 233 236 259 273 281 294 302 314 330 346 358 360 3 10 17 21 26 27 28 30 30 30 30 30 28 24 23 25 20 16 15 10 4 358 349 342 334
216 216 215 214 213 216 226 227 226 243 259 272 280 288 298 312 329 343 347 354 6 16 18 22 23 20 21 22 21 19 19 20 17 14 17 17 14 11 7 2 358 351 343 335
216 216 216 216 218 222 224 226 230 239 250 265 276 278 288 300 310 326 331 339 358 12 14 16 18 14 12 11 11 11 10 12 10 10 11 10 8 6 2 359 358 355 349 344
217 215 216 220 225 224 222 225 231 238 246 259 272 279 280 287 298 309 313 326 340 349 359 7 10 5 1 1 1 6 9 9 9 9 7 5 4 2 358 356 356 355 350 346
218 219 218 219 221 223 224 227 231 239 246 255 265 277 277 279 290 294 291 308 323 331 343 354 357 358 358 357 358 360 1 1 3 4 3 360 358 359 357 356 356 356 351 346
220 221 220 223 224 222 228 226 231 238 245 253 262 274 280 285 294 288 286 298 313 316 328 340 344 342 345 350 353 355 354 354 354 354 351 351 352 351 348 348 348 349 347 344
222 222 220 223 227 228 226 227 234 241 244 252 261 269 275 282 297 297 296 299 300 307 312 318 323 330 336 340 342 344 344 343 343 345 346 344 340 340 337 336 339 340 341 338
221 224 221 221 226 230 231 230 234 239 244 250 257 263 271 276 285 286 289 291 290 298 301 311 319 321 326 329 331 333 333 335 338 341 341 335 334 337 340 332 332 335 335 335
222 225 225 221 222 228 230 230 235 240 244 249 253 258 265 271 278 281 285 290 293 294 298 293 301 307 315 321 324 326 328 330 331 334 334 330 328 327 331 331 329 331 330 329
225 228 228 225 223 227 231 233 236 240 244 248 252 257 261 267 270 273 282 287 291 288 290 291 293 299 306 311 313 314 317 320 322 324 325 326 328 327 327 326 324 326 327 327
227 230 230 230 230 230 234 235 238 242 245 248 252 256 260 265 269 271 278 283 286 283 281 286 293 298 298 301 303 304 308 312 315 317 319 321 323 323 322 322 322 321 322 324
229 231 231 233 233 233 235 236 239 243 244 248 252 256 259 263 266 274 279 284 286 277 274 282 289 292 293 295 297 298 301 307 312 315 315 318 320 321 322 322 320 320 319 320
231 233 233 234 234 233 233 236 238 240 242 246 250 255 259 264 267 272 276 280 281 279 275 281 283 288 287 289 292 295 297 300 305 309 311 313 316 316 317 319 318 318 317 316
233 235 236 236 233 234 234 233 237 240 244 248 252 254 258 263 268 272 274 276 278 280 278 279 281 283 280 280 285 289 292 295 299 303 305 309 313 313 312 311 312 313 314 315
232 235 237 236 234 235 234 234 237 241 245 250 253 255 258 260 265 267 270 272 275 277 277 280 283 282 279 278 281 285 288 291 297 299 302 306 308 308 307 309 309 309 313 315
231 234 236 236 237 237 236 236 239 242 246 248 252 254 257 259 263 264 267 270 273 274 275 277 280 280 277 277 279 281 287 290 294 299 301 302 304 302 302 303 306 307 309 312
232 234 235 237 238 239 238 237 239 243 246 248 251 255 257 259 262 266 267 269 272 273 274 276 277 275 278 279 280 281 284 289 291 294 297 299 300 300 301 301 303 305 307 308
231 233 235 237 241 243 241 239 241 245 247 248 251 255 257 260 262 264 266 267 269 271 274 276 277 276 277 278 279 281 283 285 287 289 291 294 298 299 300 299 301 303 303 304
231 233 236 240 243 246 246 244 244 246 248 249 253 255 257 260 262 264 266 267 267 271 274 278 280 276 277 277 277 278 281 282 284 287 290 294 296 297 298 298 298 299 300 300
233 235 238 242 245 247 247 246 247 248 249 251 252 254 256 258 262 264 266 268 269 270 272 277 277 276 275 275 274 275 279 282 283 285 286 289 292 294 295 296 297 298 298 299
236 237 239 242 245 249 249 248 248 251 253 253 252 253 255 256 260 263 266 268 269 272 273 275 275 273 274 274 275 276 279 281 281 284 286 286 290 292 293 294 296 297 298 298
239 239 241 243 247 251 252 252 252 252 253 254 254 254 255 256 259 262 265 266 267 269 272 273 273 274 275 274 274 277 279 280 281 283 286 286 287 289 290 292 293 295 295 296
Height
5927 5929 5930 5932 5933 5933 5934 5934 5933 5932 5930 5930 5929 5929 5928 5927 5925 5924 5921 5919 5917 5915 5912 5910 5908 5905 5904 5902 5900 5899 5897 5896 5895 5894 5893 5892 5891 5890 5889 5889 5888 5887 5886 5886
5925 5927 5929 5930 5931 5931 5932 5932 5932 5931 5930 5930 5929 5929 5929 5927 5926 5924 5922 5920 5918 5916 5914 5912 5909 5907 5906 5904 5902 5900 5899 5897 5896 5895 5894 5892 5891 5890 5889 5888 5887 5886 5885 5885
5922 5925 5926 5927 5929 5930 5931 5931 5931 5930 5930 5929 5929 5929 5927 5927 5926 5925 5923 5921 5919 5917 5915 5913 5911 5909 5907 5905 5904 5902 5900 5899 5897 5896 5894 5893 5891 5890 5889 5888 5887 5886 5884 5883
5919 5922 5923 5925 5926 5928 5928 5930 5930 5929 5929 5928 5929 5928 5928 5926 5926 5925 5924 5922 5920 5918 5916 5914 5913 5911 5909 5907 5905 5903 5902 5900 5898 5896 5895 5893 5892 5890 5889 5887 5886 5885 5884 5882
5915 5918 5920 5922 5924 5925 5927 5928 5928 5929 5928 5928 5928 5928 5928 5926 5925 5924 5923 5922 5920 5919 5917 5915 5913 5912 5910 5908 5906 5904 5903 5901 5899 5897 5895 5893 5891 5890 5888 5887 5885 5884 5882 5881
5912 5915 5917 5919 5921 5923 5924 5925 5926 5926 5926 5926 5927 5927 5926 5925 5924 5923 5922 5922 5920 5919 5917 5916 5914 5913 5911 5909 5907 5905 5903 5901 5899 5896 5894 5893 5891 5890 5888 5886 5884 5883 5881 5880
5909 5912 5914 5916 5918 5920 5922 5924 5924 5924 5924 5924 5924 5924 5925 5924 5923 5922 5921 5920 5919 5918 5917 5916 5914 5913 5911 5909 5908 5905 5903 5901 5899 5897 5895 5893 5891 5889 5887 5885 5883 5882 5880 5878
5905 5908 5911 5913 5915 5917 5919 5920 5922 5922 5922 5922 5922 5921 5923 5922 5921 5920 5919 5918 5918 5917 5916 5915 5913 5912 5911 5909 5907 5905 5903 5901 5899 5896 5895 5893 5891 5889 5886 5884 5882 5880 5879 5877
5900 5904 5907 5909 5911 5914 5915 5916 5918 5919 5919 5919 5919 5919 5919 5919 5919 5918 5917 5917 5917 5916 5915 5913 5912 5911 5910 5908 5907 5905 5902 5900 5898 5896 5893 5891 5889 5887 5885 5883 5881 5879 5877 5875
5895 5899 5902 5905 5907 5909 5911 5913 5914 5915 5915 5915 5915 5915 5916 5916 5915 5914 5914 5915 5915 5914 5913 5912 5911 5909 5908 5907 5906 5904 5902 5899 5897 5894 5892 5890 5888 5886 5884 5881 5880 5878 5876 5873
5891 5894 5898 5900 5903 5904 5907 5908 5909 5910 5911 5912 5912 5914 5914 5914 5913 5912 5912 5912 5912 5912 5911 5911 5909 5907 5906 5905 5904 5902 5900 5898 5895 5892 5891 5889 5886 5884 5881 5879 5877 5875 5873 5871
5885 5889 5892 5896 5898 5900 5902 5903 5905 5907 5907 5907 5908 5912 5910 5910 5910 5909 5909 5909 5909 5909 5909 5908 5906 5905 5904 5903 5902 5900 5898 5896 5894 5892 5890 5887 5884 5881 5878 5876 5874 5872 5870 5868
5880 5884 5887 5891 5894 5895 5896 5898 5900 5901 5903 5903 5904 5907 5906 5907 5906 5906 5906 5906 5906 5906 5906 5904 5903 5901 5901 5900 5899 5898 5896 5894 5892 5890 5887 5885 5882 5879 5877 5874 5872 5870 5868 5865
5875 5878 5882 5885 5887 5889 5891 5893 5895 5896 5897 5898 5899 5900 5902 5903 5903 5902 5902 5902 5903 5902 5902 5901 5900 5899 5899 5898 5897 5896 5894 5892 5890 5887 5885 5882 5879 5876 5874 5871 5870 5867 5865 5862
5868 5872 5875 5879 5882 5884 5886 5888 5889 5891 5892 5893 5894 5895 5897 5898 5898 5898 5898 5898 5899 5899 5899 5899 5898 5897 5896 5895 5894 5893 5891 5889 5886 5884 5881 5879 5876 5873 5870 5868 5866 5864 5862 5859
5862 5866 5869 5873 5875 5878 5880 5882 5884 5885 5887 5887 5889 5890 5891 5892 5893 5893 5893 5893 5893 5894 5894 5894 5894 5892 5892 5891 5890 5889 5887 5885 5882 5880 5878 5875 5872 5870 5867 5865 5863 5860 5858 5855
5855 5859 5863 5866 5869 5871 5874 5877 5878 5880 5881 5882 5884 5886 5886 5887 5888 5889 5888 5888 5889 5889 5889 5888 5888 5887 5887 5887 5885 5884 5882 5881 5878 5876 5873 5870 5868 5866 5863 5861 5859 5857 5854 5851
5848 5851 5855 5858 5862 5864 5869 5870 5871 5873 5875 5876 5878 5879 5881 5882 5882 5883 5883 5883 5883 5884 5883 5883 5883 5883 5882 5881 5880 5879 5877 5875 5873 5871 5868 5866 5864 5862 5859 5857 5855 5852 5850 5847
5841 5844 5846 5850 5853 5856 5861 5863 5865 5866 5868 5870 5872 5874 5875 5876 5876 5877 5878 5878 5878 5878 5878 5877 5877 5877 5876 5875 5874 5873 5871 5869 5867 5865 5863 5861 5859 5857 5854 5852 5850 5847 5845 5842
5833 5836 5839 5842 5845 5848 5854 5856 5857 5859 5861 5864 5865 5866 5868 5869 5869 5871 5871 5871 5871 5871 5871 5871 5870 5870 5870 5869 5867 5866 5864 5863 5861 5859 5857 5855 5853 5851 5849 5847 5845 5842 5840 5837
5825 5828 5831 5834 5836 5840 5845 5848 5850 5852 5855 5856 5857 5858 5859 5861 5862 5864 5864 5864 5863 5863 5864 5864 5863 5863 5862 5861 5860 5859 5857 5857 5855 5854 5852 5850 5847 5845 5843 5841 5839 5836 5834 5831
5817 5820 5823 5826 5828 5834 5837 5839 5842 5844 5846 5848 5848 5850 5851 5853 5854 5854 5855 5855 5855 5855 5854 5855 5856 5855 5855 5854 5853 5852 5851 5850 5848 5847 5845 5843 5842 5839 5837 5835 5833 5830 5827 5825
5808 5812 5815 5818 5822 5825 5827 5830 5832 5834 5837 5839 5841 5842 5843 5844 5845 5846 5846 5847 5846 5846 5846 5847 5847 5846 5846 5846 5845 5845 5844 5842 5841 5839 5838 5836 5835 5833 5830 5828 5825 5822 5820 5817
5801 5804 5807 5810 5813 5816 5819 5821 5822 5825 5828 5829 5831 5833 5834 5835 5836 5837 5838 5838 5838 5838 5838 5839 5839 5839 5838 5838 5837 5836 5835 5835 5834 5832 5830 5829 5827 5825 5822 5820 5817 5815 5812 5810
5794 5797 5799 5802 5805 5807 5810 5812 5814 5816 5818 5820 5822 5823 5825 5826 5828 5828 5829 5829 5830 5831 5830 5830 5831 5830 5830 5829 5829 5828 5828 5827 5826 5824 5822 5821 5819 5817 5814 5812 5810 5807 5805 5802
5786 5789 5792 5794 5797 5798 5801 5803 5805 5806 5809 5811 5812 5814 5816 5817 5819 5820 5820 5821 5821 5822 5822 5822 5822 5822 5821 5821 5820 5820 5819 5819 5817 5816 5814 5812 5810 5808 5806 5804 5802 5800 5798 5795